Starlink 32556

operational
NORAD ID: 61858 Int'l Des: 2024-202 Owner: SPXS Country: US Constellation: starlink
LEOCIRCULAR

Starlink 32556について

説明を読み込み中...

リアルタイム位置

3D地球を読み込み中...

次回通過

高度履歴

Altitude vs Time

uPlot chart will show altitude changes over time

軌道要素

1 61858U 24202P 25258.42247109 -.00001411 00000-0 -41776-4 0 9997
2 61858 43.0026 147.7343 0001360 277.0612 83.0085 15.27566596 48535
Epoch: Sep 15, 2025 • Age: 24 hours

現在のステータス

高度 488.2 km
速度 7.62 km/s
衛星直下点 -22.93°S, 166.05°W
打ち上げ日 Nov 7, 2024
運用期間 0.8 years
タイプ internet

技術仕様

分類 Payload
質量 730.00 kg
乾燥質量 700.00 kg
総質量 730.00 kg
長さ 0.30 m
直径 4.10 m
スパン 29.00 m
形状 Box + pan
製造者 SPXS
バスタイプ Starlink V2M
フェーズステータス In Orbit
所有者/国 SPXS/US

大規模コンステレーション

Loading constellations...